Weather History for Lee's Summit, MO

Change the Weather History Date:

Sunday, November 13, 2011

  Actual Average (KMKC) Record (KMKC)
Temperature  
Mean Temperature 60 °F -  
Max Temperature 69 °F 53 °F 80 °F (1999)
Min Temperature 50 °F 37 °F 19 °F (2000)
Degree Days  
Heating Degree Days 4    
Growing Degree Days 10 (Base 50)    
Moisture  
Dew Point 34 °F    
Average Humidity 40    
Maximum Humidity 64    
Minimum Humidity 20    
Precipitation  
Precipitation 0.00 in - - ()
Sea Level Pressure  
Sea Level Pressure 29.53 in    
Wind  
Wind Speed 13 mph (SW)    
Max Wind Speed 23 mph    
Max Gust Speed 32 mph    
Visibility 10 miles    
Events      
Averages and records for this station are not official NWS values.
T = Trace of Precipitation, MM = Missing Value Source: NWS Daily Summary

Daily Weather History Graph

Daily Weather History Graph

Search for Another Location

Airport:

Trip Planner

Search our weather history database for the weather conditions in past years. The results will help you decide how hot, cold, wet, or windy it might be!

Date:

Astronomy

Nov. 13, 2011 Rise Set
Actual Time 6:57 AM CST 5:05 PM CST
Civil Twilight 6:29 AM CST 5:33 PM CST
Nautical Twilight 5:57 AM CST 6:05 PM CST
Astronomical Twilight 5:25 AM CST 6:37 PM CST
Moon 7:15 PM CST (11/13) 9:30 AM CST (11/13)
Length of Visible Light 11h 04m
Length of Day
10h 07m
Waning Gibbous, 92% of the Moon is Illuminated
Nov 13
Waning Gibbous
Nov 18
Last Quarter
Nov 25
New
Dec 2
First Quarter
Dec 10
Full

Hourly Weather History & Observations

Time (CST) Temp. Dew Point Humidity Pressure Visibility Wind Dir Wind Speed Gust Speed Precip Events Conditions
12:53 AM 59.0 °F 46.0 °F 62% 29.46 in 10.0 mi South 13.8 mph - N/A   Clear
1:53 AM 60.1 °F 48.0 °F 64% 29.42 in 10.0 mi South 15.0 mph 26.5 mph N/A   Clear
2:53 AM 60.1 °F 48.0 °F 64% 29.39 in 10.0 mi SSW 18.4 mph 31.1 mph N/A   Clear
3:53 AM 60.1 °F 46.0 °F 60% 29.38 in 10.0 mi SSW 18.4 mph 32.2 mph N/A   Clear
4:53 AM 61.0 °F 44.1 °F 54% 29.40 in 10.0 mi SW 23.0 mph 31.1 mph N/A   Clear
5:53 AM 59.0 °F 42.1 °F 53% 29.43 in 10.0 mi SW 17.3 mph 26.5 mph N/A   Clear
6:53 AM 57.9 °F 37.0 °F 46% 29.46 in 10.0 mi SW 15.0 mph 23.0 mph N/A   Clear
7:53 AM 57.0 °F 36.0 °F 45% 29.50 in 10.0 mi SW 13.8 mph - N/A   Clear
8:53 AM 59.0 °F 36.0 °F 42% 29.54 in 10.0 mi SW 11.5 mph - N/A   Clear
9:53 AM 62.1 °F 37.0 °F 39% 29.54 in 10.0 mi SW 12.7 mph - N/A   Clear
10:53 AM 66.0 °F 30.9 °F 27% 29.55 in 10.0 mi SSW 13.8 mph 21.9 mph N/A   Clear
11:53 AM 66.9 °F 24.1 °F 20% 29.55 in 10.0 mi WSW 17.3 mph 26.5 mph N/A   Clear
12:53 PM 68.0 °F 25.0 °F 20% 29.55 in 10.0 mi WSW 16.1 mph 24.2 mph N/A   Clear
1:53 PM 69.1 °F 27.0 °F 21% 29.55 in 10.0 mi SW 13.8 mph 19.6 mph N/A   Clear
2:53 PM 68.0 °F 26.1 °F 21% 29.56 in 10.0 mi WSW 9.2 mph - N/A   Clear
3:53 PM 66.0 °F 27.0 °F 23% 29.58 in 10.0 mi SW 10.4 mph - N/A   Clear
4:53 PM 63.0 °F 27.0 °F 26% 29.59 in 10.0 mi WSW 4.6 mph - N/A   Clear
5:53 PM 60.1 °F 27.0 °F 28% 29.61 in 10.0 mi SSW 4.6 mph - N/A   Clear
6:53 PM 60.1 °F 27.0 °F 28% 29.61 in 10.0 mi WSW 3.5 mph - N/A   Clear
7:53 PM 59.0 °F 27.0 °F 29% 29.61 in 10.0 mi South 3.5 mph - N/A   Clear
8:53 PM 54.0 °F 30.9 °F 41% 29.60 in 10.0 mi Calm Calm - N/A   Clear
9:53 PM 55.0 °F 30.0 °F 38% 29.60 in 10.0 mi ESE 3.5 mph - N/A   Clear
10:53 PM 52.0 °F 33.1 °F 49% 29.60 in 10.0 mi Calm Calm - N/A   Partly Cloudy
11:53 PM 50.0 °F 34.0 °F 54% 29.58 in 10.0 mi NE 5.8 mph - N/A   Clear